This is the latest recevied weather packets stored in our database for station/object EB1GOD-1. If no packets are shown the sender has not sent any weather packets the latest 10 day(s).
| Time | Temp. | Humidity | Pressure | Rain* | Wind** | Luminosity | Snow |
|---|---|---|---|---|---|---|---|
| 1777673797 | 17.22° C | 77% | 1156.2 hPa | - | - | - | - |
| 1777672897 | 17.22° C | 77% | 1156.2 hPa | - | - | - | - |
| 1777671997 | 17.22° C | 76% | 1156.2 hPa | - | - | - | - |
| 1777671097 | 17.22° C | 77% | 1156.5 hPa | - | - | - | - |
| 1777670197 | 17.22° C | 78% | 1156.6 hPa | - | - | - | - |
| 1777669297 | 17.22° C | 78% | 1156.5 hPa | - | - | - | - |
| 1777668397 | 17.78° C | 77% | 1156.5 hPa | - | - | - | - |
| 1777667497 | 17.22° C | 77% | 1156.4 hPa | - | - | - | - |
| 1777666596 | 17.78° C | 75% | 1156.4 hPa | - | - | - | - |
| 1777665697 | 17.78° C | 74% | 1156.4 hPa | - | - | - | - |
| 1777664796 | 17.78° C | 74% | 1156.2 hPa | - | - | - | - |
| 1777663896 | 17.78° C | 73% | 1156.2 hPa | - | - | - | - |
| 1777663035 | 17.78° C | 71% | 1156.3 hPa | - | - | - | - |
| 1777662996 | 17.78° C | 71% | 1156.3 hPa | - | - | - | - |
| 1777662096 | 17.78° C | 72% | 1156.2 hPa | - | - | - | - |
| 1777661196 | 17.78° C | 72% | 1156.2 hPa | - | - | - | - |
| 1777660296 | 17.78° C | 72% | 1156.2 hPa | - | - | - | - |
| 1777659396 | 17.78° C | 72% | 1156.2 hPa | - | - | - | - |
| 1777658496 | 18.33° C | 72% | 1156 hPa | - | - | - | - |
| 1777657596 | 17.78° C | 73% | 1156 hPa | - | - | - | - |
| 1777656696 | 18.33° C | 70% | 1156 hPa | - | - | - | - |
| 1777655796 | 18.33° C | 71% | 1156 hPa | - | - | - | - |
| 1777654896 | 17.78° C | 74% | 1156 hPa | - | - | - | - |
| 1777653995 | 17.78° C | 75% | 1156.2 hPa | - | - | - | - |
| 1777653095 | 17.78° C | 75% | 1156.1 hPa | - | - | - | - |
* Rain since midnight (hover to see other rain measurements)
** Current wind speed in m/s (hover to see current wind gust speed)